MDT,Max TemperatureF,Mean TemperatureF,Min TemperatureF,Max Dew PointF,MeanDew PointF,Min DewpointF,Max Humidity, Mean Humidity, Min Humidity, Max Sea Level PressureIn, Mean Sea Level PressureIn, Min Sea Level PressureIn, Max VisibilityMiles, Mean VisibilityMiles, Min VisibilityMiles, Max Wind SpeedMPH, Mean Wind SpeedMPH, Max Gust SpeedMPH,PrecipitationIn, CloudCover, Events, WindDirDegrees
2012-9-1,93,79,65,49,45,40,47,32,17,29.87,29.75,29.70,10,10,10,31,17,40,0.00,1,,225
2012-9-2,85,68,50,44,38,32,61,39,16,29.99,29.91,29.81,10,10,10,25,6,29,0.00,1,,300
2012-9-3,84,66,47,36,26,20,52,31,9,30.00,29.93,29.88,10,10,10,21,8,24,0.00,0,,284
2012-9-4,81,62,43,35,24,17,52,31,9,30.08,29.92,29.83,10,10,10,24,12,30,0.00,0,,330
2012-9-5,83,61,38,36,29,24,76,44,12,30.12,29.97,29.83,10,10,10,17,6,29,0.00,0,,173
2012-9-6,73,59,44,42,33,27,57,40,23,30.13,29.98,29.83,10,10,10,23,12,29,T,2,,8
2012-9-7,72,59,45,48,40,30,93,60,26,30.28,30.22,30.15,10,10,10,14,5,23,0.00,2,,350
2012-9-8,81,65,49,37,30,22,61,37,12,30.33,30.20,30.12,10,10,10,18,9,25,0.00,0,,297
2012-9-9,91,72,53,37,25,14,54,30,6,30.09,29.91,29.69,10,10,10,26,14,36,0.00,0,,192
2012-9-10,94,78,62,44,31,19,38,25,11,29.81,29.68,29.62,10,10,10,28,14,37,0.00,0,Thunderstorm,239
2012-9-11,71,55,39,42,28,23,45,32,18,30.11,29.90,29.65,10,10,9,21,9,24,0.00,0,,9
2012-9-12,68,50,32,27,23,19,61,40,19,30.35,30.23,30.12,10,10,10,18,3,22,0.00,1,,28
2012-9-13,74,53,32,26,20,15,61,37,12,30.39,30.36,30.32,10,10,10,21,8,32,0.00,0,,287
2012-9-14,87,64,41,24,20,13,43,25,6,30.38,30.19,30.00,10,10,10,21,11,35,0.00,0,,163
2012-9-15,87,64,40,26,18,10,48,27,5,30.06,29.99,29.92,10,10,10,15,3,15,0.00,0,,141
2012-9-16,75,56,37,40,27,18,63,39,15,30.15,30.02,29.92,10,10,10,23,9,29,0.01,1,,11
2012-9-17,66,49,32,39,32,25,92,59,26,30.21,30.14,30.06,10,10,10,17,5,20,0.00,1,,343
2012-9-18,81,66,50,32,29,27,44,29,14,30.05,29.95,29.83,10,10,10,25,12,31,0.00,0,,273
2012-9-19,72,58,43,33,28,24,42,31,19,30.14,30.04,29.83,10,10,10,22,12,28,0.00,0,,318
2012-9-20,76,60,43,32,29,27,46,32,18,30.14,30.03,29.97,10,10,10,31,13,38,0.00,0,,300
2012-9-21,76,58,40,34,31,27,57,39,21,30.15,30.08,30.04,10,10,8,23,11,30,0.00,0,,298
2012-9-22,77,55,33,34,30,27,70,44,18,30.22,30.15,30.09,10,10,10,12,4,14,0.00,0,,139
2012-9-23,78,64,49,32,30,29,44,31,18,30.10,30.04,30.00,10,10,10,15,8,17,0.00,0,,147
2012-9-24,78,63,47,33,30,24,54,35,15,30.00,29.93,29.85,10,10,6,13,5,18,0.00,0,,105
2012-9-25,79,61,43,40,28,21,55,34,12,30.01,29.90,29.83,10,10,10,13,6,17,0.00,0,,134
2012-9-26,79,62,44,43,38,32,76,48,19,30.05,29.98,29.91,10,10,10,20,10,24,0.00,0,,166
2012-9-27,76,61,45,47,42,35,68,46,23,30.16,30.06,30.00,10,10,9,18,7,24,T,2,Rain-Thunderstorm,162
2012-9-28,77,61,44,46,41,34,86,57,27,30.09,30.00,29.91,10,10,10,26,14,33,0.00,0,,160
2012-9-29,80,65,50,39,36,33,66,43,19,29.99,29.94,29.90,10,10,10,20,9,23,0.00,2,,265
2012-9-30,77,64,50,38,36,32,54,39,23,30.17,30.05,29.98,10,10,10,26,10,33,0.00,2,,312